sat.trackr.live / text

‹ back to catalog

STARLINK-2473

NORAD 48131 · 2021-027AR

PAYLOAD ACTIVE UNKNOWN

§ Identity

Operator
Country
US
Launch date
2021-04-07
Launch site
AFETR
Launch vehicle
Mass (kg)
RCS (m²)

Purposes: comms

External: N2YO · Heavens-Above · Gunter

§ Orbital elements

Epoch: 2026-09-20T05:02:34.394784Z

Period
94.01 min
Inclination
53.1589°
Eccentricity
0.0001102
Mean motion
15.31704965 rev/d
Perigee alt
470.0 km
Apogee alt
471.5 km
Semi-major
6,848.9 km
B*
3.4597e-5
RAAN
327.5863°
Arg perigee
91.2609°
Mean anomaly
268.8519°
Rev number
30,248

§ Raw data

STARLINK-24731 48131U 21027AR  26263.21012031  .00000709  00000+0  34597-4 0  99952 48131  53.1589 327.5863 0001102  91.2609 268.8519 15.31704965302482

JSON: /api/v1/satellites/48131 · /tle

For live sub-satellite position, see the globe view (requires WebGL).

§ Visibility from observer

Set your observer location to see the next 7 days of passes ≥ 10°. The values pass through the URL so the page stays shareable.

No JS? Fill the form by hand. The geolocation button needs JavaScript.